Der Flugplatz Bonn-Hangelar

Wo wir fliegen.

Vorfeld
Blick auf das Vorfeld
Tankstelle
Blick auf die Tankstelle

Wir fliegen auf dem Gelände des Flugplatz Bonn-Hangelar, betrieben von der Flugplatzgesellschaft Hangelar mbH. Dieses befindet sich in St. Augustin, wenige Minuten von Bonn entfernt. Eine Anfahrt können Sie hier sehen bzw. sich berechnen lassen.

Der Flugplatz selbst besitzt eine lange Geschichte. Seit über 100 Jahren wird hier geflogen.

Damit dies auch weiterhin gefahrlos erfolgen kann, wird sämtlicher Flugbetrieb stets gemäß den Vorgaben der Deutschen Flugsicherung (dfs) durchgeführt. Im Zweifel ist Rücksprache mit dem Tower zu halten!

Ebenso sind die Benutzungsordnungen Teil 1 und Teil 2 des Flugplatzes hier zu finden.

Wetter Informationen

An dieser Stelle möchten wir ein paar Wetterinformationen bereitstellen.

Hier dargestellten Werte erheben keinen Anspruch auf Vollständigkeit oder Aktualität und ersetzen keine Flugvorbereitung!

Köln/Bonn

MTAR

EDDK 010520Z 15007KT 9999 -RA FEW048 BKN060 OVC090 10/06 Q1007 NOSIG

(hier klicken für Details)

TAF

TAF EDDK 010500Z 0106/0212 14007KT 9999 BKN030 BECMG 0106/0109 24007KT TEMPO 0111/0114 RA BECMG 0112/0115 VRB03KT BECMG 0209/0212 32005KT

(hier klicken für Details)

Windkarte für Europa
Windkarte

Die Wetterkarten werden mit freundlicher Unterstützung von Top-Meteo bereitgestellt.

Bodenkarte für Europa
Bodenkarte